Simultaneous Nadir Overpasses (SNOs) Predictions

Prediction of SNOs between AQUA and NOAA-19 Satellite Orbit:

Table of predicted SNOs for the next 14.0 days since TLE Epoch: 2/26/2016
Index Date (AQUA) Time (AQUA) Lat,Lon (AQUA) SZA (AQUA ) Date (NOAA-19) Time (NOAA-19) Lat,Lon (NOAA-19) SZA (NOAA-19 ) Distance(km) Time Diff (sec)
1 02/27/2016 13:36:22 80.72, -61.81 91.34 02/27/2016 13:36:34 80.72, -61.71 91.32 1.76 12
2 02/29/2016 18:20:42 80.75,-133.17 90.55 02/29/2016 18:19:44 80.76,-133.35 90.60 3.26 58
3 02/29/2016 19:10:07 -80.71, 34.89 89.54 02/29/2016 19:10:37 -80.72, 34.89 89.55 0.44 30
4 03/02/2016 23:54:27 -80.74, -36.52 90.33 03/02/2016 23:53:46 -80.74, -36.35 90.33 3.02 41
5 03/03/2016 00:43:53 80.72, 131.39 89.62 03/03/2016 00:44:51 80.72, 131.33 89.60 1.09 58
6 03/05/2016 05:28:13 80.75, 59.89 88.83 03/05/2016 05:28:00 80.74, 59.97 88.82 1.79 13
7 03/07/2016 11:01:57 -80.73, 156.78 92.10 03/07/2016 11:02:03 -80.73, 156.73 92.09 1.21 6
8 03/09/2016 15:46:17 -80.77, 85.17 92.88 03/09/2016 15:45:13 -80.77, 85.07 92.84 1.66 64




NCC Satellite Simultaneous Nadir Overpasses (SNOs) Prediction Service
